Terminal Aerodrome Forecast
Issued by NWS Corpus Christi, TX

Home | Current Version | Previous Version | Text Only | Print | Product List | Glossary On
Versions: 1 2 3 4 5 6 7 8 9 10 11 12 13 14 15 16 17 18 19 20 21 22 23 24 25 26
000
FTUS44 KCRP 051500 AAA
TAFVCT
TAF AMD
KVCT 051539Z 0516/0612 35019G28KT P6SM OVC015
     FM051800 35017G24KT P6SM BKN022 OVC060
     FM052000 36017G25KT P6SM SCT028 OVC070
     FM060100 01012KT P6SM FEW015 BKN070=

USA.gov is the U.S. government's official web portal to all federal, state and local government web resources and services.